This is the latest recevied weather packets stored in our database for station/object NR0A-4. If no packets are shown the sender has not sent any weather packets the latest 10 day(s).
| Time | Temp. | Humidity | Pressure | Rain* | Wind** | Luminosity | Snow |
|---|---|---|---|---|---|---|---|
| 1788305404 | 30° C | 65% | 1010.5 hPa | 0 mm | - | 102 W/m² | - |
| 1788305104 | 30° C | 65% | 1010.5 hPa | 0 mm | - | 105 W/m² | - |
| 1788304804 | 30° C | 66% | 1010.5 hPa | 0 mm | - | 104 W/m² | - |
| 1788304504 | 30° C | 65% | 1010.5 hPa | 0 mm | - | 109 W/m² | - |
| 1788304204 | 30° C | 65% | 1010.6 hPa | 0 mm | - | 114 W/m² | - |
| 1788303904 | 30° C | 65% | 1010.7 hPa | 0 mm | - | 118 W/m² | - |
| 1788303604 | 30.56° C | 65% | 1010.8 hPa | 0 mm | - | 128 W/m² | - |
| 1788303304 | 30.56° C | 65% | 1011 hPa | 0 mm | - | 148 W/m² | - |
| 1788303004 | 30.56° C | 64% | 1010.9 hPa | 0 mm | - | 181 W/m² | - |
| 1788302704 | 30.56° C | 64% | 1011.1 hPa | 0 mm | - | 225 W/m² | - |
| 1788302403 | 30.56° C | 64% | 1011.2 hPa | 0 mm | - | 216 W/m² | - |
| 1788302104 | 31.11° C | 64% | 1011.3 hPa | 0 mm | - | 227 W/m² | - |
| 1788301804 | 31.11° C | 65% | 1011.2 hPa | 0 mm | - | 334 W/m² | - |
| 1788301507 | 31.11° C | 65% | 1011.2 hPa | 0 mm | - | 267 W/m² | - |
| 1788301204 | 30.56° C | 64% | 1011.3 hPa | 0 mm | - | 369 W/m² | - |
| 1788300903 | 30.56° C | 63% | 1011.4 hPa | 0 mm | - | 297 W/m² | - |
| 1788300604 | 30.56° C | 65% | 1011.5 hPa | 0 mm | - | 288 W/m² | - |
| 1788300303 | 31.11° C | 65% | 1011.5 hPa | 0 mm | - | 315 W/m² | - |
| 1788300004 | 30.56° C | 65% | 1011.5 hPa | 0 mm | - | 336 W/m² | - |
| 1788299704 | 31.11° C | 64% | 1011.4 hPa | 0 mm | - | 362 W/m² | - |
| 1788299404 | 31.11° C | 64% | 1011.4 hPa | 0 mm | - | 366 W/m² | - |
| 1788299105 | 31.11° C | 65% | 1011.3 hPa | 0 mm | - | 397 W/m² | - |
| 1788298804 | 31.11° C | 64% | 1011.3 hPa | 0 mm | - | 436 W/m² | - |
| 1788298504 | 31.67° C | 64% | 1011.2 hPa | 0 mm | - | 404 W/m² | - |
| 1788298204 | 31.67° C | 64% | 1011.4 hPa | 0 mm | - | 434 W/m² | - |
* Rain latest hour (hover to see other rain measurements)
** Current wind speed in m/s (hover to see current wind gust speed)